C/2019 K8 ( ATLAS )

Japanese version
Home page
Updated on March 26, 2020

---------------------------------------------------------------------

* Profile

Discovery Date May 27, 2019
Magnitude 17.9 mag
Discoverer Asteroid Terrestrial-Impact Last Alert System (ATLAS) search program

* Pictures

* Orbital Elements

Epoch 2019 July 16.0 TT = JDT 2458680.5
T 2019 July 21.21749 TT                                 Rudenko
q   3.1950437            (2000.0)            P               Q
z  +0.0007053      Peri.   85.35236     -0.02318675     -0.36219219
 +/-0.0000016      Node   291.04631     -0.48368344     +0.81978107
e   0.9977464      Incl.   93.22216     +0.87493583     +0.44359421
From 490 observations 2019 May 27-2020 Feb. 26, mean residual 0".5.

* Magnitudes Graph

        m1 = 10.5 + 5 log d + 10.0 log r

---------------------------------------------------------------------

The orbital elements are published on M.P.E.C. 2020-F67.
The magnitudes graphs are made with Comet for Windows.

---------------------------------------------------------------------

Copyright(C) Seiichi Yoshida (comet@aerith.net). All rights reserved.